Left ArrowRight Arrow

44.8408, -93.29828

Hourly Observations for May 22, 2024

Temp ( °F °C ) Dew Point ( °F °C ) Humidity (%) Winds ( mph kmh ) Pressure ( in mb ) Visibility ( mi km ) Precip ( " mm )
12:53 am 00:53 Cloudy 58 14.4 55 12.8 90 90 WNW 15 24 29.43 997 7 11 0.01 0.25
1:53 am 01:53 Cloudy 57 13.9 53 11.7 87 87 WNW 18 30 29.47 998 10 16 0.00 0.00
2:11 am 02:11 Cloudy 56 13.3 52 11.1 87 87 WNW 15 24 29.49 999 10 16 0.00 0.00
2:53 am 02:53 Cloudy 56 13.3 51 10.6 84 84 W 15 24 29.50 999 10 16 0.00 0.00
3:53 am 03:53 Cloudy 56 13.3 50 10 80 80 W 16 26 29.52 1000 10 16 0.00 0.00
4:53 am 04:53 Cloudy 55 12.8 48 8.9 77 77 W 17 28 29.55 1001 10 16 0.00 0.00
5:53 am 05:53 Mostly Sunny 53 11.7 46 7.8 77 77 W 15 24 29.57 1001 10 16 0.00 0.00
6:53 am 06:53 Mostly Sunny 56 13.3 46 7.8 69 69 W 16 26 29.62 1003 10 16 0.00 0.00
7:53 am 07:53 Partly Cloudy 58 14.4 46 7.8 65 65 W 16 26 29.62 1003 10 16 0.00 0.00
8:53 am 08:53 Partly Cloudy 60 15.6 47 8.3 62 62 WNW 18 30 29.65 1004 10 16 0.00 0.00
9:53 am 09:53 Mostly Cloudy 62 16.7 46 7.8 56 56 W 21 33 29.67 1005 10 16 0.00 0.00
10:53 am 10:53 Mostly Cloudy 63 17.2 46 7.8 54 54 W 16 26 29.67 1005 10 16 0.00 0.00
11:53 am 11:53 Partly Cloudy 67 19.4 47 8.3 49 49 W 17 28 29.67 1005 10 16 0.00 0.00
12:53 pm 12:53 Partly Cloudy 68 20 47 8.3 47 47 W 20 31 29.68 1005 10 16 0.00 0.00
1:53 pm 13:53 Mostly Cloudy 69 20.6 47 8.3 45 45 W 18 30 29.70 1006 10 16 0.00 0.00
2:53 pm 14:53 Mostly Cloudy 71 21.7 45 7.2 39 39 W 22 35 29.70 1006 10 16 0.00 0.00
3:53 pm 15:53 Partly Cloudy 70 21.1 45 7.2 41 41 WNW 18 30 29.71 1006 10 16 0.00 0.00
4:53 pm 16:53 Mostly Cloudy 69 20.6 45 7.2 42 42 W 17 28 29.71 1006 10 16 0.00 0.00
5:53 pm 17:53 Mostly Cloudy 70 21.1 45 7.2 41 41 W 14 22 29.72 1006 10 16 0.00 0.00
6:53 pm 18:53 Partly Cloudy 70 21.1 44 6.7 39 39 W 20 31 29.73 1007 10 16 0.00 0.00
7:53 pm 19:53 Mostly Sunny 69 20.6 44 6.7 40 40 W 13 20 29.75 1007 10 16 0.00 0.00
8:53 pm 20:53 Mostly Clear 67 19.4 42 5.6 40 40 W 9 15 29.76 1008 10 16 0.00 0.00
9:53 pm 21:53 Mostly Clear 65 18.3 44 6.7 47 47 SW 9 15 29.78 1009 10 16 0.00 0.00
10:53 pm 22:53 Clear 63 17.2 45 7.2 52 52 SW 7 11 29.80 1009 10 16 0.00 0.00
11:53 pm 23:53 Clear 61 16.1 46 7.8 58 58 WSW 8 13 29.80 1009 10 16 0.00 0.00

Powered by Vaisala Xweather